星链-4055 (STARLINK-4055 )

导读

STARLINK-4055是美国太空探索技术公司(SpaceX)星链计划的卫星,于2022年7月17日发射入轨,属于星链星座组网卫星,旨在为全球提供高速互联网接入服务。星链通过大规模低轨卫星组网,弥补地面网络覆盖不足,该卫星是星链批量部署中的一员,服务全球卫星互联网系统。

Basic Information
目录编号:
53161
目录名称:
STARLINK-4055
国际标识:
2022-083AF
轨道中心:
EARTH
卫星名称:
星链-4055
卫星全名:
星链-4055 (STARLINK-4055 )
卫星状态:
在轨 (已飞行1517 天)
发射日期:
2022-07-17 UTC
国别 :
美国 (US)
星等 :
--
This satellite is enrolled in the Space Conjunction Data Service (SCDS) and the current flight risk assessment level is: No High Risk
Orbit Information
数据来源 国际轨道数据
星历时间: 2026-09-11T21:01:02+0800
7小时前
查看轨道信息
半长轴: 6837.865km
偏心率: 0.0001175
轨道倾角: 53.162°
近地点辐角 97.753°
升交点赤经 38.410°
平近点角 262.360°
近地点: 458.924km
远地点: 460.532km
周期: 93.787分钟
每日圈数: 15.354017
Detailed Information
固有亮度:
5
最大亮度:
2.5
卫星平台:
Starlink v1.5
覆盖范围:
全球
运营商:
太空探索技术公司
运营商所在国:
美国
制造商(研发单位):
太空探索技术公司
制造商所在国:
美国
使用方式:
暂无
Satellite Introduction
星链(Starlink)计划是由太空探索技术公司(SpaceX)提出的一个巨型低轨卫星互联网星座项目,计划在2019年至2024年间在太空搭建由约1.2万颗卫星组成的“星链”网络,其中1584颗将部署在地球上空550千米处的近地轨道,并从2020年开始工作。该卫星仍在工作。
2D Orbit Map
3D Orbit Map
Orbit Altitude Analysis Chart
Orbit Inclination Analysis Chart
Orbit Comprehensive Analysis Chart
View Comprehensive Chart
Conjunction Data List
Event ID Objects TCA Miss Dist (km) Collision Risk Probability Collision Risk Index (CRI) Action
CDM_260911-055205-316106-937822
2026-09-11T
05:52:02+0000
2.209 km
极远距离
1.95019E-6 低风险 0.41
CDM_260913-073705-316105-365123
2026-09-13T
07:37:44+0000
2.467 km
极远距离
1.655708E-6 低风险 0.39
CDM_260914-031905-316106-280921
2026-09-14T
03:19:44+0000
2.455 km
极远距离
1.509168E-6 低风险 0.39
CDM_260912-004805-316106-688921
2026-09-12T
00:48:02+0000
2.590 km
极远距离
1.463771E-6 低风险 0.38
CDM_260912-075005-316106-410621
2026-09-12T
07:50:24+0000
2.633 km
极远距离
1.422434E-6 低风险 0.38
CDM_260913-023805-316106-488124
OBJECT F (64881)
2026-09-13T
02:38:10+0000
2.879 km
极远距离
1.403012E-6 低风险 0.38
CDM_260912-012405-316106-243821
2026-09-12T
01:24:49+0000
2.701 km
极远距离
1.355348E-6 低风险 0.38
CDM_260911-192505-316106-026821
2026-09-11T
19:25:40+0000
2.825 km
极远距离
1.227347E-6 低风险 0.37
CDM_260911-192905-316106-033823
2026-09-11T
19:29:12+0000
2.996 km
极远距离
1.064212E-6 低风险 0.36
CDM_260914-015205-316106-454021
ARCSTONE (64540)
2026-09-14T
01:52:38+0000
2.618 km
极远距离
9.550357E-7 极低风险 0.35
Miss Distance Evolution Trend with All Objects
Collision Probability Evolution Trend with All Objects